• In India
  • List of Countries
  • For 7 days
  • Water Temperature
  • Satellite Maps
  • Weather Map
  • Weather Widgets
  • user-avatar
    Login

    Hourly Weather El Penol

    Today, 11 December, Monday

    Time Temperature Precipitation Wind Pressure Humidity
    00:00 +16°C° 1.1 mm 1 mps 617 mmHg 94%
    01:00 +16°C° 0 mm 1 mps 617 mmHg 93%
    02:00 +16°C° 1 mm 1 mps 617 mmHg 93%
    03:00 +16°C° 1 mm 1 mps 616 mmHg 92%
    04:00 +15°C° 1 mm 1 mps 616 mmHg 92%
    05:00 +16°C° 0.6 mm 1 mps 616 mmHg 90%
    06:00 +16°C° 0.6 mm 1 mps 617 mmHg 89%
    07:00 +16°C° 0.6 mm 1 mps 617 mmHg 87%
    08:00 +19°C° 0.3 mm 1 mps 618 mmHg 81%
    09:00 +21°C° 0.3 mm 1 mps 618 mmHg 74%
    10:00 +22°C° 0.3 mm 1 mps 619 mmHg 68%
    11:00 +21°C° 0.4 mm 2 mps 618 mmHg 70%
    12:00 +21°C° 0.4 mm 2 mps 618 mmHg 72%
    13:00 +21°C° 0.4 mm 2 mps 617 mmHg 74%
    14:00 +21°C° 0.9 mm 2 mps 617 mmHg 77%
    15:00 +20°C° 0.9 mm 2 mps 616 mmHg 81%
    16:00 +19°C° 0.9 mm 2 mps 615 mmHg 84%
    17:00 +19°C° 1.2 mm 1 mps 616 mmHg 87%
    18:00 +18°C° 1.2 mm 1 mps 616 mmHg 90%
    19:00 +18°C° 1.2 mm 1 mps 616 mmHg 94%
    20:00 +16°C° 0.7 mm 1 mps 616 mmHg 93%
    21:00 +16°C° 0.7 mm 1 mps 617 mmHg 93%
    22:00 +16°C° 0.7 mm 1 mps 617 mmHg 93%
    23:00 +16°C° 0.3 mm 1 mps 617 mmHg 93%

    Tomorrow, 12 December, Tuesday

    Time Temperature Precipitation Wind Pressure Humidity
    00:00 +15°C° 0.3 mm 1 mps 617 mmHg 92%
    01:00 +15°C° 0.3 mm 1 mps 616 mmHg 92%
    02:00 +15°C° 0.1 mm 1 mps 616 mmHg 91%
    03:00 +15°C° 0.1 mm 1 mps 616 mmHg 91%
    04:00 +15°C° 0.1 mm 1 mps 616 mmHg 90%
    05:00 +15°C° 0.1 mm 1 mps 616 mmHg 88%
    06:00 +15°C° 0.1 mm 1 mps 616 mmHg 87%
    07:00 +16°C° 0.1 mm 1 mps 617 mmHg 85%
    08:00 +19°C° 0 mm 1 mps 618 mmHg 77%
    09:00 +20°C° 0 mm 1 mps 618 mmHg 70%
    10:00 +22°C° 0 mm 1 mps 619 mmHg 62%
    11:00 +23°C° 0.2 mm 2 mps 619 mmHg 63%
    12:00 +23°C° 0.2 mm 2 mps 618 mmHg 64%
    13:00 +23°C° 0.2 mm 2 mps 618 mmHg 65%
    14:00 +21°C° 0.6 mm 2 mps 617 mmHg 69%
    15:00 +21°C° 0.6 mm 2 mps 617 mmHg 73%
    16:00 +20°C° 0.6 mm 2 mps 616 mmHg 77%
    17:00 +19°C° 0.8 mm 2 mps 616 mmHg 82%
    18:00 +18°C° 0.8 mm 1 mps 616 mmHg 88%
    19:00 +16°C° 0.8 mm 1 mps 616 mmHg 93%
    20:00 +16°C° 0.5 mm 1 mps 616 mmHg 93%
    21:00 +16°C° 0.5 mm 1 mps 617 mmHg 93%
    22:00 +15°C° 0.5 mm 1 mps 617 mmHg 93%
    23:00 +15°C° 0.1 mm 1 mps 617 mmHg 92%

    Day after tomorrow, 13 December, Wednesday

    Time Temperature Precipitation Wind Pressure Humidity
    00:00 +15°C° 0.1 mm 1 mps 617 mmHg 91%
    01:00 +15°C° 0.1 mm 1 mps 616 mmHg 89%
    02:00 +15°C° 0.1 mm 1 mps 616 mmHg 89%
    03:00 +14°C° 0.1 mm 1 mps 616 mmHg 89%
    04:00 +14°C° 0.1 mm 1 mps 616 mmHg 89%
    05:00 +15°C° 0 mm 1 mps 616 mmHg 87%
    06:00 +15°C° 0 mm 1 mps 617 mmHg 85%
    07:00 +15°C° 0 mm 1 mps 617 mmHg 83%
    08:00 +19°C° 0 mm 1 mps 618 mmHg 72%
    09:00 +21°C° 0 mm 1 mps 619 mmHg 61%
    10:00 +24°C° 0 mm 1 mps 620 mmHg 51%
    11:00 +24°C° 0.1 mm 2 mps 620 mmHg 51%
    12:00 +25°C° 0.1 mm 2 mps 619 mmHg 51%
    13:00 +25°C° 0.1 mm 3 mps 619 mmHg 51%
    14:00 +24°C° 0.3 mm 2 mps 618 mmHg 56%
    15:00 +23°C° 0.3 mm 2 mps 617 mmHg 61%
    16:00 +23°C° 0.3 mm 2 mps 617 mmHg 66%
    17:00 +20°C° 0.4 mm 2 mps 616 mmHg 75%
    18:00 +19°C° 0.4 mm 1 mps 616 mmHg 84%
    19:00 +15°C° 0.4 mm 0 mps 616 mmHg 93%
    20:00 +15°C° 0.2 mm 0 mps 616 mmHg 93%
    21:00 +15°C° 0.2 mm 0 mps 617 mmHg 92%
    22:00 +15°C° 0.2 mm 0 mps 617 mmHg 92%
    23:00 +15°C° 0.1 mm 0 mps 617 mmHg 91%

    14 December, Thursday

    Time Temperature Precipitation Wind Pressure Humidity
    00:00 +16°C° 0.1 mm 1 mps 617 mmHg 91%
    01:00 +16°C° 0.1 mm 1 mps 616 mmHg 90%
    02:00 +15°C° 0 mm 1 mps 616 mmHg 90%
    03:00 +15°C° 0 mm 1 mps 616 mmHg 91%
    04:00 +15°C° 0 mm 1 mps 615 mmHg 91%
    05:00 +16°C° 0 mm 1 mps 616 mmHg 89%
    06:00 +16°C° 0 mm 1 mps 616 mmHg 87%
    07:00 +16°C° 0 mm 1 mps 617 mmHg 86%
    08:00 +19°C° 0 mm 1 mps 618 mmHg 78%
    09:00 +20°C° 0 mm 2 mps 618 mmHg 71%
    10:00 +23°C° 0 mm 2 mps 619 mmHg 64%
    11:00 +23°C° 0 mm 2 mps 618 mmHg 64%
    12:00 +23°C° 0 mm 2 mps 618 mmHg 65%
    13:00 +23°C° 0 mm 2 mps 617 mmHg 66%
    14:00 +23°C° 0.5 mm 2 mps 617 mmHg 70%
    15:00 +21°C° 0.5 mm 2 mps 616 mmHg 74%
    16:00 +20°C° 0.5 mm 2 mps 615 mmHg 78%
    17:00 +20°C° 0.4 mm 1 mps 615 mmHg 84%
    18:00 +19°C° 0.4 mm 1 mps 616 mmHg 90%
    19:00 +18°C° 0.4 mm 1 mps 616 mmHg 95%
    20:00 +18°C° 0.3 mm 1 mps 616 mmHg 95%
    21:00 +18°C° 0.3 mm 1 mps 617 mmHg 94%
    22:00 +18°C° 0.3 mm 1 mps 617 mmHg 93%
    23:00 +16°C° 0.1 mm 1 mps 617 mmHg 92%

    15 December, Friday

    Time Temperature Precipitation Wind Pressure Humidity
    00:00 +16°C° 0.1 mm 1 mps 616 mmHg 91%
    01:00 +16°C° 0.1 mm 1 mps 616 mmHg 90%
    02:00 +15°C° 0 mm 1 mps 616 mmHg 90%
    03:00 +15°C° 0 mm 1 mps 615 mmHg 90%
    04:00 +15°C° 0 mm 1 mps 615 mmHg 90%
    05:00 +16°C° 0 mm 1 mps 616 mmHg 88%
    06:00 +16°C° 0 mm 1 mps 616 mmHg 87%
    07:00 +16°C° 0 mm 1 mps 617 mmHg 86%
    08:00 +19°C° 0 mm 1 mps 618 mmHg 76%
    09:00 +20°C° 0 mm 2 mps 618 mmHg 67%
    10:00 +23°C° 0 mm 2 mps 619 mmHg 57%
    11:00 +23°C° 0.1 mm 2 mps 619 mmHg 57%
    12:00 +24°C° 0.1 mm 3 mps 618 mmHg 56%
    13:00 +24°C° 0.1 mm 3 mps 618 mmHg 56%
    14:00 +22°C° 0.1 mm 3 mps 617 mmHg 60%
    15:00 +23°C° 0.1 mm 2 mps 616 mmHg 64%
    16:00 +21°C° 0.1 mm 2 mps 616 mmHg 69%
    17:00 +19°C° 0.3 mm 2 mps 616 mmHg 75%
    18:00 +19°C° 0.3 mm 1 mps 616 mmHg 81%
    19:00 +16°C° 0.3 mm 1 mps 616 mmHg 87%
    20:00 +16°C° 0.2 mm 1 mps 616 mmHg 85%
    21:00 +16°C° 0.2 mm 1 mps 617 mmHg 83%
    22:00 +15°C° 0.2 mm 1 mps 617 mmHg 81%
    23:00 +15°C° 0.1 mm 1 mps 617 mmHg 80%

    16 December, Saturday

    Time Temperature Precipitation Wind Pressure Humidity
    00:00 +15°C° 0.1 mm 1 mps 616 mmHg 78%
    01:00 +15°C° 0.1 mm 1 mps 616 mmHg 76%
    02:00 +15°C° 0.1 mm 1 mps 616 mmHg 76%
    03:00 +15°C° 0.1 mm 1 mps 615 mmHg 76%
    04:00 +15°C° 0.1 mm 1 mps 615 mmHg 75%
    05:00 +15°C° 0 mm 1 mps 616 mmHg 75%
    06:00 +16°C° 0 mm 1 mps 616 mmHg 75%
    07:00 +16°C° 0 mm 1 mps 617 mmHg 75%
    08:00 +19°C° 0 mm 1 mps 618 mmHg 69%
    09:00 +20°C° 0 mm 2 mps 619 mmHg 64%
    10:00 +24°C° 0 mm 2 mps 619 mmHg 58%
    11:00 +24°C° 0.1 mm 2 mps 619 mmHg 60%
    12:00 +24°C° 0.1 mm 2 mps 618 mmHg 62%
    13:00 +24°C° 0.1 mm 2 mps 617 mmHg 63%
    14:00 +23°C° 0.5 mm 2 mps 617 mmHg 67%
    15:00 +21°C° 0.5 mm 2 mps 616 mmHg 71%
    16:00 +21°C° 0.5 mm 2 mps 615 mmHg 75%
    17:00 +20°C° 0.4 mm 2 mps 615 mmHg 81%
    18:00 +19°C° 0.4 mm 1 mps 615 mmHg 87%
    19:00 +18°C° 0.4 mm 1 mps 615 mmHg 92%
    20:00 +18°C° 0.1 mm 1 mps 616 mmHg 92%
    21:00 +18°C° 0.1 mm 1 mps 616 mmHg 91%
    22:00 +18°C° 0.1 mm 1 mps 616 mmHg 90%
    23:00 +18°C° 0.1 mm 1 mps 616 mmHg 90%
    Show more